STARLINK-35510

Last updated on Wed Dec 10 2025 00:02:05 GMT+0000 (Coordinated Universal Time)

1 66397U 25257T 25343.66668981 .00084797 00000+0 21118-2 0 9998 2 66397 53.1598 278.7215 0001246 98.5508 146.8798 15.39541514 6001
UTC large
Height (km)
Speed (km/s)
/
Latitude / Longitude
Inclination (degrees)
Orbital Period (minutes)
Azimuth
Elevation
Range (km)
Doppler Factor

Next 0 passes for location: London (51.5072 / 0.1276)

Sorry there are no passes over London.